Time,TemperatureF,DewpointF,PressureIn,WindDirection,WindDirectionDegrees,WindSpeedMPH,WindSpeedGustMPH,Humidity,HourlyPrecipIn,Conditions,Clouds,dailyrainin,SoftwareType,DateUTC
2013-04-16 00:03:00,52.0,50.0,-100.00,SE,134,17.0,22.0,91,0.00,,,0.03,,2013-04-16 04:03:00,
2013-04-16 00:13:00,52.0,50.0,-100.00,SE,134,17.0,22.0,91,0.00,,,0.03,,2013-04-16 04:13:00,
2013-04-16 00:23:00,52.0,49.0,-100.00,SE,137,14.0,18.0,91,0.00,,,0.03,,2013-04-16 04:23:00,
2013-04-16 00:33:00,52.0,50.0,-100.00,SE,134,16.0,21.0,92,0.00,,,0.03,,2013-04-16 04:33:00,
2013-04-16 00:42:00,52.0,50.0,-100.00,SE,134,16.0,21.0,92,0.00,,,0.03,,2013-04-16 04:42:00,
2013-04-16 00:53:00,52.0,50.0,-100.00,SE,134,16.0,19.0,93,0.00,,,0.03,,2013-04-16 04:53:00,
2013-04-16 01:03:00,52.0,50.0,-100.00,SE,134,16.0,19.0,93,0.00,,,0.03,,2013-04-16 05:03:00,
2013-04-16 01:12:00,52.0,50.0,-100.00,SE,134,16.0,19.0,93,0.00,,,0.03,,2013-04-16 05:12:00,
2013-04-16 01:22:00,52.0,50.0,-100.00,SE,133,15.0,19.0,94,0.00,,,0.03,,2013-04-16 05:22:00,
2013-04-16 01:32:00,51.0,50.0,-100.00,SE,131,17.0,21.0,95,0.00,,,0.03,,2013-04-16 05:32:00,
2013-04-16 01:42:00,51.0,50.0,-100.00,SE,131,17.0,21.0,95,0.00,,,0.03,,2013-04-16 05:42:00,
2013-04-16 01:52:00,51.0,50.0,-100.00,SE,133,17.0,22.0,96,0.00,,,0.03,,2013-04-16 05:52:00,
2013-04-16 02:02:00,51.0,50.0,-100.00,SE,134,19.0,23.0,97,0.00,,,0.03,,2013-04-16 06:02:00,
2013-04-16 02:12:00,51.0,50.0,-100.00,SE,134,19.0,23.0,97,0.00,,,0.03,,2013-04-16 06:12:00,
2013-04-16 02:22:00,51.0,50.0,-100.00,SE,136,17.0,22.0,98,0.00,,,0.03,,2013-04-16 06:22:00,
2013-04-16 02:32:00,51.0,50.0,-100.00,SE,133,17.0,22.0,97,0.00,,,0.03,,2013-04-16 06:32:00,
2013-04-16 02:42:00,51.0,50.0,-100.00,SE,133,17.0,22.0,97,0.00,,,0.03,,2013-04-16 06:42:00,
2013-04-16 02:52:00,51.0,50.0,-100.00,SE,131,16.0,20.0,97,0.00,,,0.03,,2013-04-16 06:52:00,
2013-04-16 03:02:00,51.0,50.0,-100.00,SE,131,16.0,20.0,97,0.00,,,0.03,,2013-04-16 07:02:00,
2013-04-16 03:12:00,51.0,50.0,-100.00,SE,131,16.0,20.0,97,0.00,,,0.03,,2013-04-16 07:12:00,
2013-04-16 03:22:00,51.0,50.0,-100.00,SE,133,16.0,21.0,96,0.00,,,0.03,,2013-04-16 07:22:00,
2013-04-16 03:32:00,51.0,50.0,-100.00,SE,131,17.0,21.0,96,0.00,,,0.03,,2013-04-16 07:32:00,
2013-04-16 03:42:00,51.0,50.0,-100.00,SE,131,17.0,21.0,96,0.00,,,0.03,,2013-04-16 07:42:00,
2013-04-16 03:53:00,51.0,50.0,-100.00,SE,133,17.0,20.0,96,0.00,,,0.03,,2013-04-16 07:53:00,
2013-04-16 04:02:00,51.0,50.0,-100.00,SE,136,15.0,19.0,97,0.00,,,0.03,,2013-04-16 08:02:00,
2013-04-16 04:12:00,51.0,50.0,-100.00,SE,136,15.0,19.0,97,0.00,,,0.03,,2013-04-16 08:12:00,
2013-04-16 04:22:00,51.0,50.0,-100.00,SE,134,16.0,20.0,95,0.00,,,0.03,,2013-04-16 08:22:00,
2013-04-16 04:32:00,51.0,50.0,-100.00,SE,133,16.0,21.0,95,0.00,,,0.03,,2013-04-16 08:32:00,
2013-04-16 04:42:00,51.0,50.0,-100.00,SE,133,16.0,21.0,95,0.00,,,0.03,,2013-04-16 08:42:00,
2013-04-16 04:52:00,51.0,49.0,-100.00,SE,133,16.0,21.0,94,0.00,,,0.03,,2013-04-16 08:52:00,
2013-04-16 05:02:00,51.0,50.0,-100.00,SE,133,16.0,20.0,94,0.00,,,0.03,,2013-04-16 09:02:00,
2013-04-16 05:12:00,51.0,50.0,-100.00,SE,133,16.0,20.0,94,0.00,,,0.03,,2013-04-16 09:12:00,
2013-04-16 05:22:00,51.0,50.0,-100.00,SE,133,16.0,20.0,95,0.00,,,0.03,,2013-04-16 09:22:00,
2013-04-16 05:33:00,51.0,50.0,-100.00,SE,133,16.0,21.0,95,0.00,,,0.03,,2013-04-16 09:33:00,
2013-04-16 05:43:00,51.0,50.0,-100.00,SE,133,16.0,21.0,95,0.00,,,0.03,,2013-04-16 09:43:00,
2013-04-16 05:53:00,51.0,50.0,-100.00,SE,133,15.0,20.0,96,0.00,,,0.03,,2013-04-16 09:53:00,
2013-04-16 06:03:00,51.0,50.0,-100.00,SE,133,15.0,20.0,96,0.00,,,0.03,,2013-04-16 10:03:00,
2013-04-16 06:13:00,51.0,50.0,-100.00,SE,133,15.0,20.0,96,0.00,,,0.03,,2013-04-16 10:13:00,
2013-04-16 06:23:00,51.0,50.0,-100.00,SE,133,15.0,21.0,96,0.00,,,0.03,,2013-04-16 10:23:00,
2013-04-16 06:33:00,52.0,51.0,-100.00,SE,134,15.0,19.0,96,0.00,,,0.03,,2013-04-16 10:33:00,
2013-04-16 06:42:00,52.0,51.0,-100.00,SE,134,15.0,19.0,96,0.00,,,0.03,,2013-04-16 10:42:00,
2013-04-16 06:53:00,51.0,50.0,-100.00,SE,136,14.0,17.0,96,0.00,,,0.03,,2013-04-16 10:53:00,
2013-04-16 07:03:00,51.0,50.0,-100.00,SE,130,14.0,17.0,96,0.00,,,0.03,,2013-04-16 11:03:00,
2013-04-16 07:12:00,51.0,50.0,-100.00,SE,130,14.0,17.0,96,0.00,,,0.03,,2013-04-16 11:12:00,
2013-04-16 07:22:00,52.0,50.0,-100.00,SE,131,14.0,17.0,96,0.00,,,0.03,,2013-04-16 11:22:00,
2013-04-16 07:32:00,51.0,50.0,-100.00,SE,131,14.0,18.0,96,0.00,,,0.03,,2013-04-16 11:32:00,
2013-04-16 07:42:00,51.0,50.0,-100.00,SE,131,14.0,18.0,96,0.00,,,0.03,,2013-04-16 11:42:00,
2013-04-16 07:53:00,51.0,50.0,-100.00,SE,131,14.0,17.0,96,0.00,,,0.03,,2013-04-16 11:53:00,
2013-04-16 08:02:00,51.0,50.0,-100.00,SE,131,14.0,17.0,96,0.00,,,0.03,,2013-04-16 12:02:00,
2013-04-16 08:12:00,51.0,50.0,-100.00,SE,131,14.0,17.0,96,0.00,,,0.03,,2013-04-16 12:12:00,
2013-04-16 08:22:00,52.0,50.0,-100.00,SE,131,13.0,16.0,96,0.00,,,0.03,,2013-04-16 12:22:00,
2013-04-16 08:32:00,52.0,51.0,-100.00,SE,127,12.0,16.0,96,0.00,,,0.02,,2013-04-16 12:32:00,
2013-04-16 08:42:00,52.0,51.0,-100.00,SE,127,12.0,16.0,96,0.00,,,0.02,,2013-04-16 12:42:00,
2013-04-16 08:52:00,52.0,51.0,-100.00,SE,124,11.0,15.0,96,0.00,,,0.02,,2013-04-16 12:52:00,
2013-04-16 09:02:00,52.0,51.0,-100.00,SE,130,13.0,17.0,96,0.00,,,0.02,,2013-04-16 13:02:00,
2013-04-16 09:12:00,52.0,51.0,-100.00,SE,130,13.0,17.0,96,0.00,,,0.02,,2013-04-16 13:12:00,
2013-04-16 09:22:00,52.0,51.0,-100.00,SE,133,14.0,17.0,96,0.00,,,0.02,,2013-04-16 13:22:00,
2013-04-16 09:32:00,52.0,51.0,-100.00,SE,138,13.0,18.0,97,0.00,,,0.02,,2013-04-16 13:32:00,
2013-04-16 09:42:00,52.0,51.0,-100.00,SE,138,13.0,18.0,97,0.00,,,0.02,,2013-04-16 13:42:00,
2013-04-16 09:52:00,53.0,52.0,-100.00,SE,140,13.0,17.0,97,0.00,,,0.02,,2013-04-16 13:52:00,
2013-04-16 10:02:00,53.0,52.0,-100.00,SE,140,13.0,17.0,97,0.00,,,0.02,,2013-04-16 14:02:00,
2013-04-16 10:12:00,53.0,53.0,-100.00,SE,138,13.0,19.0,97,0.00,,,0.02,,2013-04-16 14:12:00,
2013-04-16 10:22:00,53.0,52.0,-100.00,SE,140,12.0,16.0,97,0.00,,,0.01,,2013-04-16 14:22:00,
2013-04-16 10:32:00,54.0,54.0,-100.00,SE,137,12.0,17.0,97,0.00,,,0.01,,2013-04-16 14:32:00,
2013-04-16 10:42:00,54.0,54.0,-100.00,SE,137,12.0,17.0,97,0.00,,,0.01,,2013-04-16 14:42:00,
2013-04-16 10:52:00,54.0,53.0,-100.00,SE,134,13.0,16.0,96,0.00,,,0.01,,2013-04-16 14:52:00,
2013-04-16 11:02:00,55.0,54.0,-100.00,SE,137,13.0,18.0,95,0.00,,,0.01,,2013-04-16 15:02:00,
2013-04-16 11:12:00,55.0,54.0,-100.00,SE,137,13.0,18.0,95,0.00,,,0.01,,2013-04-16 15:12:00,
2013-04-16 11:22:00,56.0,54.0,-100.00,SE,143,13.0,18.0,93,0.00,,,0.01,,2013-04-16 15:22:00,
2013-04-16 11:33:00,57.0,54.0,-100.00,SE,137,13.0,18.0,91,0.00,,,0.01,,2013-04-16 15:33:00,
2013-04-16 11:43:00,57.0,54.0,-100.00,SE,137,13.0,18.0,91,0.00,,,0.01,,2013-04-16 15:43:00,
2013-04-16 11:53:00,59.0,55.0,-100.00,SE,140,14.0,19.0,88,0.00,,,0.01,,2013-04-16 15:53:00,
2013-04-16 12:03:00,60.0,56.0,-100.00,SE,140,14.0,18.0,87,0.00,,,0.01,,2013-04-16 16:03:00,
2013-04-16 12:13:00,60.0,56.0,-100.00,SE,140,14.0,18.0,87,0.00,,,0.01,,2013-04-16 16:13:00,
2013-04-16 12:23:00,60.0,56.0,-100.00,SE,145,14.0,21.0,86,0.00,,,0.01,,2013-04-16 16:23:00,
2013-04-16 12:32:00,61.0,56.0,-100.00,SSE,147,12.0,16.0,84,0.00,,,0.01,,2013-04-16 16:32:00,
2013-04-16 12:42:00,61.0,56.0,-100.00,SSE,147,12.0,16.0,84,0.00,,,0.01,,2013-04-16 16:42:00,
2013-04-16 12:53:00,61.0,56.0,-100.00,SE,145,15.0,22.0,82,0.00,,,0.01,,2013-04-16 16:53:00,
2013-04-16 13:02:00,62.0,56.0,-100.00,SE,143,16.0,20.0,81,0.00,,,0.01,,2013-04-16 17:02:00,
2013-04-16 13:12:00,62.0,56.0,-100.00,SE,143,16.0,20.0,81,0.00,,,0.01,,2013-04-16 17:12:00,
2013-04-16 13:22:00,63.0,56.0,-100.00,SSE,148,14.0,22.0,78,0.00,,,0.01,,2013-04-16 17:22:00,
2013-04-16 13:32:00,63.0,56.0,-100.00,SSE,148,14.0,22.0,78,0.00,,,0.01,,2013-04-16 17:32:00,
2013-04-16 13:43:00,63.0,56.0,-100.00,SSE,148,14.0,22.0,78,0.00,,,0.01,,2013-04-16 17:43:00,
2013-04-16 13:53:00,64.0,57.0,-100.00,SSE,148,13.0,22.0,77,0.00,,,0.01,,2013-04-16 17:53:00,
2013-04-16 14:02:00,65.0,56.0,-100.00,SE,144,15.0,23.0,75,0.00,,,0.01,,2013-04-16 18:02:00,
2013-04-16 14:12:00,65.0,56.0,-100.00,SE,144,15.0,23.0,75,0.00,,,0.01,,2013-04-16 18:12:00,
2013-04-16 14:22:00,66.0,57.0,-100.00,SE,144,16.0,21.0,72,0.00,,,0.01,,2013-04-16 18:22:00,
2013-04-16 14:32:00,66.0,57.0,-100.00,SE,143,16.0,23.0,72,0.00,,,0.01,,2013-04-16 18:32:00,
2013-04-16 14:42:00,66.0,57.0,-100.00,SE,143,16.0,23.0,72,0.00,,,0.01,,2013-04-16 18:42:00,
2013-04-16 14:52:00,68.0,57.0,-100.00,SE,145,16.0,24.0,68,0.00,,,0.01,,2013-04-16 18:52:00,
2013-04-16 15:02:00,68.0,57.0,-100.00,SE,145,16.0,24.0,68,0.00,,,0.01,,2013-04-16 19:02:00,
2013-04-16 15:12:00,68.0,57.0,-100.00,SE,145,16.0,24.0,68,0.00,,,0.01,,2013-04-16 19:12:00,
2013-04-16 15:22:00,69.0,57.0,-100.00,SE,144,15.0,22.0,66,0.00,,,0.01,,2013-04-16 19:22:00,
2013-04-16 15:32:00,69.0,57.0,-100.00,SE,144,15.0,22.0,66,0.00,,,0.01,,2013-04-16 19:32:00,
2013-04-16 15:43:00,69.0,57.0,-100.00,SE,145,17.0,24.0,64,0.00,,,0.01,,2013-04-16 19:43:00,
2013-04-16 15:52:00,69.0,57.0,-100.00,SE,145,17.0,24.0,64,0.00,,,0.01,,2013-04-16 19:52:00,
2013-04-16 16:02:00,70.0,57.0,-100.00,SSE,147,15.0,20.0,63,0.00,,,0.01,,2013-04-16 20:02:00,
2013-04-16 16:13:00,70.0,57.0,-100.00,SSE,147,15.0,20.0,63,0.00,,,0.01,,2013-04-16 20:13:00,
2013-04-16 16:22:00,70.0,57.0,-100.00,SE,144,17.0,25.0,62,0.00,,,0.01,,2013-04-16 20:22:00,
2013-04-16 16:32:00,70.0,57.0,-100.00,SE,145,15.0,22.0,64,0.00,,,0.01,,2013-04-16 20:32:00,
2013-04-16 16:42:00,70.0,57.0,-100.00,SE,145,15.0,22.0,64,0.00,,,0.01,,2013-04-16 20:42:00,
2013-04-16 16:52:00,71.0,58.0,-100.00,SSE,148,16.0,21.0,64,0.00,,,0.01,,2013-04-16 20:52:00,
2013-04-16 17:02:00,71.0,57.0,-100.00,SE,144,18.0,23.0,62,0.00,,,0.01,,2013-04-16 21:02:00,
2013-04-16 17:12:00,71.0,57.0,-100.00,SE,144,18.0,23.0,62,0.00,,,0.01,,2013-04-16 21:12:00,
2013-04-16 17:22:00,71.0,58.0,-100.00,SSE,147,15.0,21.0,62,0.00,,,0.01,,2013-04-16 21:22:00,
2013-04-16 17:32:00,71.0,58.0,-100.00,SSE,147,15.0,20.0,62,0.00,,,0.01,,2013-04-16 21:32:00,
2013-04-16 17:43:00,71.0,58.0,-100.00,SSE,147,15.0,20.0,62,0.00,,,0.01,,2013-04-16 21:43:00,
2013-04-16 17:53:00,71.0,57.0,-100.00,SSE,150,14.0,20.0,62,0.00,,,0.01,,2013-04-16 21:53:00,
2013-04-16 18:03:00,70.0,56.0,-100.00,SSE,148,17.0,23.0,62,0.00,,,0.01,,2013-04-16 22:03:00,
2013-04-16 18:13:00,70.0,56.0,-100.00,SSE,148,17.0,23.0,62,0.00,,,0.01,,2013-04-16 22:13:00,
2013-04-16 18:22:00,69.0,56.0,-100.00,SSE,148,17.0,24.0,63,0.00,,,0.01,,2013-04-16 22:22:00,
2013-04-16 18:33:00,70.0,57.0,-100.00,SSE,148,17.0,23.0,64,0.00,,,0.01,,2013-04-16 22:33:00,
2013-04-16 18:43:00,70.0,57.0,-100.00,SSE,148,17.0,23.0,64,0.00,,,0.01,,2013-04-16 22:43:00,
2013-04-16 18:52:00,69.0,57.0,-100.00,SE,145,16.0,22.0,64,0.00,,,0.01,,2013-04-16 22:52:00,
2013-04-16 19:02:00,69.0,56.0,-100.00,SE,144,17.0,23.0,65,0.00,,,0.01,,2013-04-16 23:02:00,
2013-04-16 19:12:00,69.0,56.0,-100.00,SE,144,17.0,23.0,65,0.00,,,0.01,,2013-04-16 23:12:00,
2013-04-16 19:22:00,68.0,57.0,-100.00,SE,141,18.0,25.0,67,0.00,,,0.01,,2013-04-16 23:22:00,
2013-04-16 19:32:00,67.0,56.0,-100.00,SE,143,20.0,29.0,68,0.00,,,0.01,,2013-04-16 23:32:00,
2013-04-16 19:43:00,67.0,56.0,-100.00,SE,143,20.0,29.0,68,0.00,,,0.01,,2013-04-16 23:43:00,
2013-04-16 19:52:00,67.0,56.0,-100.00,SE,140,21.0,29.0,69,0.00,,,0.01,,2013-04-16 23:52:00,
2013-04-16 20:02:00,67.0,56.0,-100.00,SE,138,19.0,25.0,69,0.00,,,0.01,,2013-04-17 00:02:00,
2013-04-16 20:12:00,67.0,56.0,-100.00,SE,138,19.0,25.0,69,0.00,,,0.01,,2013-04-17 00:12:00,
2013-04-16 20:22:00,66.0,56.0,-100.00,SE,137,17.0,23.0,70,0.00,,,0.01,,2013-04-17 00:22:00,
2013-04-16 20:32:00,66.0,56.0,-100.00,SE,133,16.0,21.0,70,0.00,,,0.01,,2013-04-17 00:32:00,
2013-04-16 20:42:00,66.0,56.0,-100.00,SE,133,16.0,21.0,70,0.00,,,0.01,,2013-04-17 00:42:00,
2013-04-16 20:52:00,66.0,56.0,-100.00,SE,133,14.0,20.0,71,0.00,,,0.01,,2013-04-17 00:52:00,
2013-04-16 21:02:00,66.0,56.0,-100.00,SE,133,14.0,20.0,72,0.00,,,0.00,,2013-04-17 01:02:00,
2013-04-16 21:12:00,66.0,56.0,-100.00,SE,133,14.0,20.0,72,0.00,,,0.00,,2013-04-17 01:12:00,
2013-04-16 21:22:00,65.0,56.0,-100.00,SE,136,13.0,17.0,72,0.00,,,0.00,,2013-04-17 01:22:00,
2013-04-16 21:32:00,65.0,56.0,-100.00,SE,130,10.0,16.0,73,0.00,,,0.00,,2013-04-17 01:32:00,
2013-04-16 21:42:00,65.0,56.0,-100.00,SE,130,10.0,16.0,73,0.00,,,0.00,,2013-04-17 01:42:00,
2013-04-16 21:52:00,65.0,56.0,-100.00,SE,131,10.0,14.0,73,0.00,,,0.00,,2013-04-17 01:52:00,
2013-04-16 22:02:00,65.0,56.0,-100.00,SE,131,11.0,18.0,73,0.00,,,0.00,,2013-04-17 02:02:00,
2013-04-16 22:12:00,65.0,56.0,-100.00,SE,131,11.0,18.0,73,0.00,,,0.00,,2013-04-17 02:12:00,
2013-04-16 22:22:00,65.0,56.0,-100.00,SE,128,11.0,16.0,72,0.00,,,0.00,,2013-04-17 02:22:00,
2013-04-16 22:32:00,65.0,56.0,-100.00,SE,130,11.0,18.0,73,0.00,,,0.00,,2013-04-17 02:32:00,
2013-04-16 22:42:00,65.0,56.0,-100.00,SE,130,11.0,18.0,73,0.00,,,0.00,,2013-04-17 02:42:00,
2013-04-16 22:52:00,65.0,56.0,-100.00,SE,128,8.0,12.0,74,0.00,,,0.00,,2013-04-17 02:52:00,
2013-04-16 23:02:00,65.0,56.0,-100.00,SE,127,6.0,10.0,75,0.00,,,0.00,,2013-04-17 03:02:00,
2013-04-16 23:12:00,65.0,56.0,-100.00,SE,127,6.0,10.0,75,0.00,,,0.00,,2013-04-17 03:12:00,
2013-04-16 23:22:00,65.0,56.0,-100.00,SE,128,8.0,11.0,74,0.00,,,0.00,,2013-04-17 03:22:00,
2013-04-16 23:33:00,65.0,56.0,-100.00,ESE,119,6.0,10.0,75,0.00,,,0.00,,2013-04-17 03:33:00,
2013-04-16 23:42:00,65.0,56.0,-100.00,ESE,119,6.0,10.0,75,0.00,,,0.00,,2013-04-17 03:42:00,
2013-04-16 23:53:00,65.0,57.0,-100.00,ESE,119,5.0,9.0,75,0.00,,,0.00,,2013-04-17 03:53:00,